OBJECT S, 62393

Orbit data source: Space-Track

You're viewing an Uncataloged Satellite

Recently launched and/or uncataloged satellites may have evolving metadata. Metadata may include but not limited to: Owner, Maufacturer, Bus, Motor, and Mission.

OBJECT S, 62393 is a satellite in LEO that was launched on Sat, 21 Dec 2024 UTC via an FALCON 9 launch vehicle from the Air Force Western Test Range (AFWTR). Unknown objects in Earth's orbit typically refer to objects detected orbiting the Earth but have not yet been identified or cataloged. These objects could be anything from previously untracked satellites, spent rocket stages, debris from satellite collisions, or even natural meteoroids temporarily captured by Earth's gravity.

Loading next visibility...
Identifier
62393, 2024-247S
Orbit
LEO
Country
Flag of TBDTBD
Related business
None
Manufacturer
Unknown
Mission
Operational Commercial Communications
Bus & Motor
Unknown
Mass
Unknown
Launch date (UTC)
2024-12-21 (10 months ago)
Launch vehicle
FALCON 9
Launch site
Air Force Western Test Range (AFWTR)
Object type
Unknown
Shape & HBR
Box, 0.0 m
Radar Cross Section
0.004 m², Small (<0.1 m²)

Expand to show TLE details & history
Last TLE update: 15 hours ago

TLE from 15 hours ago
0 OBJECT S
1 62393U 24247S   25297.81834322  .00036848  00000-0  97761-3 0  9990
2 62393  44.9755 122.6776 0009466 200.3562 159.6949 15.37701783 47144
Epoch: 2025-10-24T19:38Z
TLE epoch observation values (Epoch: 2025-10-24T19:38:24.854Z)
Latitude
0.00004°
Longitude
154.6163°
Altitude
458.968 km
Speed
7.636 km/s
True Right ascension
08h 10m 42s
True Declination
0° 00' 00"
Sunlit
Object was in daylight at epoch
Visualization orbit readout
Latitude
Unknown
Longitude
Unknown
Altitude
Unknown
Speed
Unknown
Apparent Right ascension
Unknown
Apparent Declination
Unknown
Sunlit
N/A
Visualization observer readout
Local Sidereal Time
06:11:01
Azimuth
Unknown
Elevation
Unknown
Doppler factor
Unknown
Orbital elements
Apogee altitude
460.995 km
Perigee altitude
448.06 km
Semi-major axis
6,832.665 km
Eccentricity
0.00095
Inclination
44.9755°
RAAN
122.6776°
Arg. of periapsis
200.3562°
True anomaly
159.7325°
Mean anomaly
159.6949°
Eccentric anomaly
159.7137°
Mean motion
3.84289 °/min
Orbital period
93.68 mins
BSTAR
0.00097761
Loading maneuver chart data...
Computing Atmospheric mass density...
Loading historical data...
Loading historical data...
Loading historical data...
Loading historical data...
Loading historical data...
Loading historical data...
Loading historical data...

Documentation

Showing up to 5 results
|